Location: Raven Hill Discovery Center
(45.1336°N, 85.0553°W)
Time: 01:58:15
(UTC-04:00)

Daily predictions for brighter satellites

Satellite Brightness Start Highest point End
(mag) Time Altitude Azimuth Time Altitude Azimuth Time Altitude Azimuth
SAR-Lupe-2 4.4 00:06:09 31° SW 00:07:20 42° W 00:10:46 10° NNW
Cosmos 1862 Rocket 4.0 00:06:07 10° NNW 00:10:24 55° W 00:12:14 31° SSW
Cosmos 1048 Rocket 4.4 00:06:01 10° NNW 00:11:17 56° ENE 00:13:46 30° SE
CZ-4B R/B 3.7 00:10:33 15° E 00:11:23 16° ENE 00:13:30 10° NNE
Cosmos 1125 Rocket 3.8 00:10:01 34° SSE 00:11:54 49° ESE 00:17:01 10° NNE
SeaSat 1 2.7 00:12:26 30° SE 00:14:46 60° ENE 00:19:38 10° NNW
Cosmos 1980 4.2 00:15:24 10° NW 00:20:51 51° WSW 00:23:22 30° SSW
Lacrosse 4 Rocket 1.8 00:18:43 10° NNW 00:23:07 62° ENE 00:24:39 38° ESE
Cosmos 2237 Rocket 2.9 00:28:18 10° NW 00:33:41 44° WSW 00:36:00 29° SSW
Aureole 2 Rocket 3.8 00:31:35 10° N 00:34:14 25° ENE 00:34:34 25° ENE
NOSS 3-1 (A) 4.5 00:30:22 10° WSW 00:36:10 47° NW 00:42:41 10° NNE
Cosmos 2082 4.1 00:34:33 15° SW 00:39:16 62° WNW 00:44:57 10° NNE
Cosmos 158 Rocket 4.5 00:34:47 10° NNW 00:40:00 52° ENE 00:42:06 32° ESE
Cosmos 1869 Rocket 3.5 00:39:09 49° S 00:40:19 81° E 00:44:50 10° N
Cosmos 372 Rocket 4.2 00:40:25 41° SSE 00:41:46 52° ESE 00:46:51 10° NNE
Cosmos 1733 Rocket 4.5 00:41:41 24° E 00:42:16 24° E 00:45:52 10° NE
Meteor 2-3 Rocket 4.1 00:41:29 36° SE 00:43:23 50° E 00:48:54 10° NNE
Cosmos 1892 4.2 00:44:30 24° E 00:44:30 24° E 00:47:33 10° NE
CZ-4C R/B 3.2 00:44:58 57° E 00:45:12 59° ENE 00:48:44 10° N
ERBS 2.6 00:45:24 44° WSW 00:46:20 68° NW 00:49:49 10° NE
COSMOS 2455 2.9 00:41:14 10° NW 00:47:15 71° WSW 00:49:34 39° S
H-2A R/B 3.0 00:45:23 10° NNE 00:49:25 44° E 00:49:51 42° ESE
ALOS 2 2.9 00:48:22 44° SE 00:49:26 58° ENE 00:53:46 10° N
Cosmos 1933 4.2 00:52:00 10° NNW 00:55:48 39° W 00:56:38 34° WSW
Coronas F rocket 4.1 00:57:50 13° ENE 00:57:50 13° ENE 00:58:26 10° NE
Cosmos 1626 4.5 00:55:19 13° WSW 00:57:24 18° WNW 01:00:06 10° NNW
ATLAS 2AS CENTAUR R/B 3.1 00:50:50 10° SW 00:58:26 77° NW 01:06:36 10° NE
COS B Rocket 4.0 00:55:04 10° NNW 00:58:40 46° W 00:59:29 39° WSW
In-Cosmos 22 Rocket 4.2 00:57:27 42° S 00:59:27 75° E 01:05:14 10° NNE
Cosmos 374 Rocket 4.5 01:03:27 10° NW 01:07:20 81° NE 01:08:25 51° SE
Okean 1-7 3.3 01:04:03 10° NNW 01:08:14 53° W 01:08:58 46° SW
Helios 1A Rocket 3.6 01:07:44 10° NNE 01:11:41 40° E 01:11:55 40° ESE
Cosmos 1782 3.6 01:09:43 10° N 01:13:28 38° ENE 01:14:00 36° E
Nadezhda 3 Rocket 4.4 01:07:59 10° N 01:14:02 52° ENE 01:16:43 32° SE
Cosmos 2227 Rocket 3.7 01:09:30 10° WSW 01:14:36 34° NW 01:19:44 10° N
ATLAS 3B R/B 3.0 01:08:18 10° NW 01:15:02 51° WSW 01:17:16 37° SSW
Cosmos 2074 Rocket 4.0 01:13:11 38° S 01:15:49 86° W 01:22:10 10° N
Helios 1B 4.5 01:15:04 60° SSE 01:15:50 84° ENE 01:20:12 10° NNW
Cosmos 2251 Rocket 3.5 01:12:18 10° NNW 01:17:40 81° ENE 01:19:20 45° SSE
Cosmos 2263 Rocket 4.0 01:19:12 16° ESE 01:20:13 16° E 01:23:38 10° ENE
Geosat 4.3 01:16:27 10° NE 01:21:19 47° ESE 01:22:07 43° SE
Cosmos 1340 Rocket 2.8 01:21:31 62° ESE 01:21:37 63° E 01:25:32 10° NNE
USA 238 DEB 3.7 01:15:14 10° NW 01:22:19 88° SW 01:25:50 33° SE
USA 238 3.7 01:15:20 10° NW 01:22:25 89° SW 01:25:57 33° SE
Cosmos 44 Rocket 3.3 01:21:05 47° SSW 01:22:37 80° ESE 01:27:53 10° NE
Cosmos 2333 Rocket 4.2 01:20:04 10° WNW 01:23:19 16° W 01:25:14 13° WSW
CZ-2C R/B 4.3 01:21:36 22° ESE 01:24:36 38° ENE 01:29:43 10° N
SL-16 R/B 3.0 01:21:09 10° NW 01:26:19 37° WSW 01:27:44 32° SW
GEOS 3 Rocket 3.9 01:27:38 44° SSW 01:28:39 50° WSW 01:33:43 10° NW
Cosmos 1674 Rocket 3.7 01:24:39 10° N 01:29:04 68° E 01:29:52 55° SE
Cosmos 2227 4.1 01:28:50 46° S 01:30:32 73° ESE 01:36:13 10° NNE
Cosmos 1689 Rocket 2.9 01:31:12 50° WNW 01:31:12 50° WNW 01:34:04 10° NNW
Cosmos 389 Rocket 4.0 01:29:31 10° NW 01:32:28 26° W 01:32:28 26° W
NOSS 2-3 (E) 4.1 01:30:46 36° SW 01:32:54 78° NW 01:38:46 10° NE
Cosmos 1607 3.9 01:29:04 10° NNW 01:35:15 78° NE 01:38:19 31° SE
CZ-4C R/B 3.1 01:30:32 10° NW 01:37:28 67° NE 01:43:31 17° SE
Cosmos 921 Rocket 3.3 01:38:18 46° ESE 01:38:28 46° ESE 01:42:30 10° NNE
Cosmos 1975 Rocket 4.5 01:35:05 10° NNE 01:38:56 29° ENE 01:40:19 24° ESE
Meteor 2-10 Rocket 3.7 01:33:25 10° NNW 01:38:58 73° W 01:40:45 45° S
Cosmos 2084 Rocket 3.2 01:41:26 67° E 01:41:26 67° E 01:44:59 10° NE
Cosmos 2297 Rocket 3.8 01:36:59 10° WSW 01:41:55 30° NW 01:46:52 10° N
Meteor 1-27 Rocket 4.1 01:36:39 10° N 01:42:29 61° ENE 01:44:47 36° SE
CZ-4B R/B 2.6 01:44:19 34° W 01:44:19 34° W 01:47:11 10° NNW
Cosmos 2154 Rocket 4.0 01:41:41 41° S 01:44:03 79° E 01:50:22 10° N
CZ-2C R/B 2.7 01:39:43 10° NNE 01:44:55 60° E 01:46:13 45° SSE
Cosmos 1908 Rocket 3.8 01:47:05 48° ESE 01:47:38 52° E 01:51:52 10° NNE
Cosmos 494 Rocket 3.9 01:43:17 10° NNW 01:48:34 80° WSW 01:49:58 50° S
USA 234 4.1 01:42:44 10° E 01:48:59 50° NNE 01:55:16 10° NW
Cosmos 1943 3.5 01:44:48 10° NNW 01:50:28 63° ENE 01:53:14 30° SE
SeaSat 1 4.0 01:52:14 20° WSW 01:52:37 21° WSW 01:56:17 10° WNW
NOSS 3-2 (C) 4.3 01:48:33 10° NW 01:55:54 65° NE 02:03:51 10° SE
Cosmos 1862 3.7 01:58:08 49° ESE 01:58:26 50° E 02:02:21 10° NNE
Cosmos 1603 4.0 01:54:43 10° NW 02:00:12 51° WSW 02:01:33 42° SSW
Meteor 2-6 Rocket 4.3 01:54:39 10° NNW 02:00:27 73° W 02:02:26 43° S
Cosmos 1606 2.6 01:57:21 10° N 02:01:14 81° E 02:01:27 76° SE
Lacrosse 4 Rocket 3.6 01:58:43 10° WNW 02:00:59 16° W 02:00:59 16° W
FALCON 9 R/B 4.2 01:57:19 10° W 02:03:14 20° SW 02:03:14 20° SW
Cosmos 1356 Rocket 3.7 02:08:33 48° WSW 02:09:04 52° WNW 02:13:04 10° N
Cosmos 1238 Rocket 2.5 02:06:05 10° N 02:10:13 76° W 02:10:17 75° WSW
Sich 1 Rocket 3.7 02:12:10 51° SW 02:13:03 64° W 02:17:33 10° N
Cosmos 2341 Rocket 4.0 02:13:16 39° SSW 02:15:52 77° W 02:22:17 10° N
Okean 3 3.4 02:15:18 10° N 02:19:38 87° E 02:20:24 60° SSE
NOSS 3-2 (A) 3.9 02:12:12 10° NW 02:19:39 87° WSW 02:25:29 21° SSE
Cosmos 1733 Rocket 4.2 02:18:46 29° WSW 02:19:55 33° WNW 02:23:58 10° N
NOSS 3-4 (A) 3.7 02:17:55 38° S 02:20:07 56° ESE 02:26:33 10° NE
Cosmos 1892 4.3 02:19:35 23° W 02:20:10 24° WNW 02:23:20 10° NNW
NOSS 3-4 (C) 3.8 02:18:01 38° S 02:20:13 56° ESE 02:26:38 10° NE
Coronas F rocket 3.9 02:28:56 16° WNW 02:28:56 16° WNW 02:30:13 10° NNW
Cosmos 44 3.7 02:27:01 35° SW 02:29:18 69° NW 02:34:46 10° NNE
Cosmos 1378 Rocket 3.8 02:26:46 10° NNW 02:31:03 53° W 02:31:39 48° SW
SL-8 Rocket 4.0 02:30:12 38° S 02:32:52 88° E 02:39:15 10° N
Meteor 2-13 Rocket 4.4 02:34:04 38° SSW 02:36:33 80° W 02:42:44 10° N
BREEZE-M DEB (TANK) 4.2 02:24:25 10° WNW 02:37:54 61° SSW 02:40:42 24° SE
Cosmos 1371 Rocket 4.5 02:37:07 36° SSE 02:38:56 52° ESE 02:44:08 10° NNE
Cosmos 2056 Rocket 4.4 02:38:19 29° SE 02:40:10 39° ESE 02:45:02 10° NE
Cosmos 1408 2.7 02:39:55 58° WSW 02:40:16 61° W 02:44:01 10° N
Cosmos 2218 Rocket 4.0 02:37:59 36° S 02:40:46 84° E 02:47:08 10° N
ERS-2 4.4 02:41:29 10° NE 02:43:45 15° E 02:44:57 14° ESE
Cosmos 1825 2.5 02:45:14 49° WSW 02:45:40 52° WNW 02:49:23 10° N
BREEZE-M DEB (TANK) 3.7 02:45:56 10° WNW 02:49:00 53° N 02:58:24 10° E
Okean 2 Rocket 3.2 02:51:20 45° SW 02:52:31 64° W 02:57:01 10° N
Cosmos 2366 rocket 3.9 02:53:00 35° S 02:55:49 86° W 03:02:04 10° N
Cosmos 1782 Rocket 4.0 02:55:09 39° WSW 02:56:13 48° WNW 03:00:30 10° N
Meteor 2-8 Rocket 4.4 02:51:04 10° N 02:57:12 86° E 03:00:31 29° S
Cosmos 1844 Rocket 4.3 02:58:18 16° SE 03:01:16 24° ESE 03:05:45 10° NE
SL-27 R/B 4.1 02:58:35 10° N 03:01:56 33° ENE 03:04:27 15° ESE
Cosmos 2263 Rocket 2.2 03:00:53 35° SW 03:03:25 78° WNW 03:09:09 10° NNE
CZ-2C R/B 4.1 03:02:40 30° SW 03:04:25 36° W 03:09:35 10° NNW
Cosmos 909 Rocket 4.4 03:01:27 31° S 03:04:34 63° ESE 03:11:53 10° NE
RESURS DK-1 2.3 03:12:15 46° SSW 03:13:26 87° WNW 03:17:38 10° NNE
Cosmos 1727 Rocket 4.1 03:09:16 10° NNW 03:15:26 63° W 03:18:33 30° SSW
Abrixas rocket 2.3 03:16:30 56° SSE 03:16:30 56° SSE 03:19:49 10° ENE
Cosmos 1975 Rocket 4.3 03:13:02 10° NNW 03:16:43 27° W 03:17:28 25° WSW
COSMOS 2406 3.3 03:11:19 10° NNW 03:17:08 78° ENE 03:22:29 12° SSE
Cosmos 1867 3.9 03:12:43 10° NW 03:17:56 46° WSW 03:19:56 32° SSW
Cosmos 1300 Rocket 4.3 03:18:48 25° SSE 03:20:55 46° E 03:25:07 10° NNE
IRS-P3 4.2 03:16:13 10° NNE 03:21:35 73° ESE 03:24:25 29° S
ATLAS 5 CENTAUR R/B 4.2 03:17:21 10° NNW 03:22:31 32° NE 03:28:01 10° E
Cosmos 2278 Rocket 4.3 03:19:19 10° SE 03:23:03 18° E 03:26:47 10° ENE
Meteor 1-25 Rocket 4.4 03:20:05 28° S 03:23:15 74° E 03:29:03 10° NNE
Iridium 4 Rocket 3.3 03:19:29 10° N 03:24:06 70° W 03:26:21 32° SSW
Cosmos 1624 Rocket 4.0 03:22:12 33° SSW 03:24:35 80° WNW 03:29:52 10° NNE
CZ-2C R/B 4.4 03:20:57 10° NNW 03:24:44 21° WNW 03:27:44 13° W
USA 161 4.0 03:23:19 10° ESE 03:25:26 20° ENE 03:27:42 10° NNE
CZ-4C R/B 3.6 03:19:34 10° NW 03:25:49 33° WSW 03:28:37 26° SSW
Cosmos 1242 Rocket 2.9 03:23:12 10° NNW 03:26:33 44° W 03:26:54 42° WSW
Cosmos 1536 Rocket 3.6 03:24:29 10° NNW 03:28:49 61° W 03:30:27 35° SSW
Cosmos 1184 Rocket 3.8 03:29:23 31° W 03:29:55 33° WNW 03:33:01 10° N
Resurs 1-4 Rocket 4.1 03:27:29 10° NE 03:31:28 21° E 03:35:24 10° SE
USA 234 3.2 03:25:24 10° SE 03:31:53 65° SW 03:38:24 10° NW
PSLV R/B 4.0 03:29:03 10° N 03:33:08 49° WNW 03:34:45 31° SW
SL-08 R/B 3.3 03:32:29 23° S 03:35:35 84° WSW 03:40:32 10° NNW
ATLAS 2A CENTAUR R/B 4.2 03:38:20 20° S 03:40:54 23° SSE 03:55:45 10° ESE
CENTAUR R/B 3.2 03:34:05 10° NW 03:41:52 80° NE 03:50:10 10° SE
Landsat 4 4.4 03:41:56 33° SW 03:42:43 37° W 03:46:17 10° NNW
ARIANE 5 R/B 3.8 03:39:29 10° NNE 03:44:00 33° E 03:48:13 11° SSE
Cosmos 1452 Rocket 3.7 03:42:56 24° S 03:46:05 65° ESE 03:51:18 10° NNE
Cosmos 1934 Rocket 4.3 03:42:14 16° S 03:47:12 62° E 03:53:16 10° NNE
AQUA 3.8 03:46:02 10° NNE 03:50:50 86° W 03:53:38 25° SSW
ADEOS 3.8 03:45:48 10° NNE 03:51:01 66° ESE 03:54:43 19° S
CBERS-1 4.0 03:47:58 10° NNE 03:53:09 84° WNW 03:56:24 23° SSW
Okean 1-7 Rocket 3.6 03:50:10 10° N 03:54:45 80° W 03:57:55 20° S
Cosmos 1000 Rocket 4.5 03:52:14 10° NNW 03:58:19 66° W 04:03:01 18° S
COSMOS 2487 3.6 03:56:27 10° N 03:59:58 44° ENE 04:03:27 10° SE
Cosmos 489 Rocket 4.4 03:53:57 10° NNW 04:00:14 79° WSW 04:06:26 10° SSE
Cosmos 1536 4.0 03:57:35 13° SSE 04:00:53 40° E 04:04:43 10° NNE
Okean 1 Rocket 3.1 03:59:23 25° SSW 04:01:57 74° W 04:06:26 10° N
SME Rocket 4.2 04:01:28 10° SE 04:05:00 42° ENE 04:09:05 10° N
NPP 3.9 04:01:22 10° N 04:06:38 56° WNW 04:10:15 20° SW
Cosmos 1461 4.5 04:04:34 15° S 04:07:52 32° ESE 04:11:58 10° NE
Okean O Rocket 4.1 04:05:53 10° NE 04:08:32 16° E 04:11:12 10° SE
Gbstr 26 Del rocket 3.1 04:08:34 24° SSW 04:10:33 47° SE 04:14:10 10° ENE
SL-16 R/B 2.8 04:04:43 10° SSE 04:10:56 73° ENE 04:17:09 10° N
Meteor 1-19 Rocket 4.4 04:08:20 10° N 04:14:10 84° E 04:20:02 10° SSE
Cosmos 1140 Rocket 3.4 04:09:46 10° NNW 04:14:56 90° ENE 04:20:04 10° SSE
ERS-2 2.9 04:14:14 10° N 04:17:44 40° WNW 04:19:48 21° SW
GP-B 3.7 04:13:51 10° NNW 04:18:02 41° W 04:20:45 20° SW
NOSS 2-2 (D) 4.1 04:16:07 19° S 04:18:57 51° ESE 04:23:37 10° NE
Cosmos 1605 Rocket 4.1 04:15:16 12° S 04:21:06 79° E 04:27:24 10° N
Cosmos 1821 Rocket 4.2 04:17:26 17° SSW 04:22:27 63° W 04:28:49 10° N
Cosmos 2123 Rocket 4.0 04:16:32 10° N 04:22:52 77° W 04:29:11 10° S
Cosmos 1812 4.1 04:20:00 10° NW 04:23:10 24° W 04:24:45 18° SW
Meteor 2-14 Rocket 4.4 04:20:39 14° SSW 04:25:56 81° W 04:32:04 10° N
EO 1 Del DPAF 3.3 04:22:27 10° SSE 04:26:21 85° ENE 04:30:16 10° NNW
Cosmos 1850 Rocket 4.0 04:21:21 10° NNW 04:26:38 87° ENE 04:31:54 10° SSE
Cosmos 407 Rocket 4.5 04:22:30 10° NW 04:26:50 28° W 04:29:51 16° SSW
Cosmos 1025 Rocket 2.9 04:22:42 10° NNW 04:27:00 75° W 04:31:17 10° S
Cosmos 1455 Rocket 4.2 04:22:52 10° SSE 04:27:03 41° E 04:31:15 10° NNE
CZ-2D R/B 2.6 04:21:53 10° NNE 04:27:18 62° ESE 04:32:43 10° S
Cosmos 1741 Rocket 4.0 04:23:06 10° NNW 04:28:25 88° ENE 04:33:40 10° SSE
Spot 4 Rocket 4.1 04:24:37 10° N 04:29:45 68° WNW 04:34:04 15° SSW
Meteor 1-11 Rocket 3.9 04:25:35 14° SSW 04:30:46 77° WNW 04:36:47 10° N
NOSS 2-2 (C) 3.7 04:30:09 17° SSW 04:33:18 71° SE 04:38:11 10° NE
SL-27 R/B 4.2 04:34:29 10° NW 04:36:59 18° W 04:38:09 15° WSW
Cosmos 1400 Rocket 2.8 04:40:17 11° S 04:44:03 85° E 04:48:00 10° NNE
Cosmos 1844 Rocket 3.1 04:39:58 14° SW 04:44:46 55° WNW 04:50:22 10° NNE
Cosmos 2263 Rocket 4.3 04:44:50 10° W 04:48:20 16° NW 04:51:51 10° N
IRS-1D 3.6 04:44:57 10° N 04:50:03 69° WNW 04:55:00 10° SSW
Meteor 1-23 Rocket 4.3 04:46:45 10° NNW 04:52:28 68° W 04:58:03 10° S
Cosmos 1544 Rocket 3.6 04:48:06 10° SSW 04:52:32 77° W 04:56:57 10° N
Cosmos 1844 3.9 04:47:31 12° SW 04:52:41 63° WNW 04:58:25 10° NNE
Abrixas rocket 3.0 04:50:22 10° W 04:53:39 51° N 04:56:57 10° ENE
USA 161 3.3 04:54:31 13° SW 04:55:48 17° W 04:57:47 10° NW
Cosmos 2173 Rocket 4.5 04:52:06 10° S 04:58:05 62° E 05:04:10 10° NNE
USA 129 2.2 04:56:03 10° SSE 04:58:09 60° ENE 05:00:12 10° N
NOSS 2-2 (E) 3.9 04:55:06 12° SW 04:59:05 66° NW 05:04:13 10° NE
BREEZE-M DEB (TANK) 3.3 04:59:42 10° WNW 05:05:20 43° N 05:07:44 10° ENE
Cosmos 2297 4.1 04:59:48 10° S 05:05:22 62° ESE 05:11:00 10° NNE
Cosmos 2278 Rocket 2.3 05:00:50 10° SSW 05:06:29 71° WNW 05:12:12 10° NNE
CZ-4B R/B 4.4 05:02:49 10° NNE 05:07:08 40° E 05:11:22 10° SSE
ATLAS 5 CENTAUR R/B 2.4 05:01:46 10° NW 05:07:41 68° WSW 05:14:01 10° SSE
UNK 4.3 05:04:08 10° SSW 05:08:26 38° W 05:12:47 10° NNW
Cosmos 1315 Rocket 2.8 05:06:41 10° SSW 05:10:46 81° W 05:14:49 10° N
Resurs 1-4 Rocket 2.4 05:06:27 10° N 05:11:40 56° WNW 05:16:49 10° SSW
Cosmos 1892 Rocket 4.2 05:08:57 10° NNW 05:12:57 36° W 05:16:54 10° SSW
IRS-1C Rocket 4.3 05:08:16 10° NNE 05:13:35 80° ESE 05:18:50 10° SSW
Cosmos 614 Rocket 4.4 05:08:46 10° NNW 05:13:38 43° WSW 05:18:27 10° S
Cosmos 1459 Rocket 4.2 05:07:43 10° S 05:14:05 84° E 05:20:25 10° N
Meteor 1-5 Rocket 4.3 05:08:19 10° SSW 05:14:12 78° W 05:19:58 10° N
Cosmos 2100 Rocket 4.1 05:10:19 10° S 05:16:34 89° W 05:22:57 10° N
Cosmos 1174 3.4 05:16:47 10° NW 05:20:36 85° WSW 05:23:47 10° SSE
Okean 2 4.0 05:16:54 10° NNW 05:20:42 37° W 05:24:28 10° SSW
CZ-4B R/B 3.7 05:15:22 10° NNE 05:21:02 69° ESE 05:26:40 10° S
Cosmos 1346 Rocket 3.6 05:17:10 10° N 05:21:12 56° ENE 05:25:09 10° SSE
Cosmos 2082 Rocket 2.3 05:17:23 10° NNW 05:23:08 84° WSW 05:28:51 10° SSE
